Retour au catalogue

ARABSAT 1B

ActifCommunicationsGEO
NORAD 15825·PAYLOAD·🇦🇪 UAE🇸🇦 Saudi Arabia

Lancé Jun 17, 1985 depuis Cape Canaveral Space Force Station

Loading…

TLE

FraisSource: Space-Track

Époque: Sep 14, 2026, 12:14 UTC

1 15825U 85048C   26257.51013353 -.00000166  00000-0  00000-0 0  9993
2 15825  12.2854 333.4861 0011173  20.9248 336.6611  1.00385587136329

Suivez ARABSAT 1B en temps réel avec AllMySat

Download on the App Store